Terminal Aerodrome Forecast
Issued by NWS

Home | Current Version | Previous Version | Text Only | Print | Product List | Glossary On
Versions: 1 2 3 4 5 6 7 8 9 10 11 12 13
479
FTUS45 KRIW 240526
TAFCOD
TAF
KCOD 240526Z 2406/2506 35008KT P6SM VCSH SCT080 BKN110
     FM240900 23011KT P6SM SCT080 BKN150
     FM241700 27011G17KT P6SM SCT050 BKN070
     FM241900 15011KT P6SM VCSH SCT060 BKN080
     FM242200 36011G28KT 6SM -SHRA SCT040 OVC050
     FM250300 36008KT 5SM -RA BR OVC015
      AMD LTD TO CLD VIS AND WIND=

USA.gov is the U.S. government's official web portal to all federal, state and local government web resources and services.